Regional Weather Roundup
Issued by NWS

Home | Current Version | Previous Version | Graphics & Text | Print | Product List | Glossary On
Versions: 1 2 3 4 5 6 7 8 9 10 11 12 13 14 15 16 17 18 19 20 21 22 23 24 25 26 27 28 29 30 31 32 33 34 35 36 37 38 39 40 41 42 43 44 45 46 47 48 49 50
000
ASUS43 KMPX 270010
RWRMN
WEATHER ROUNDUP FOR MINNESOTA
NATIONAL WEATHER SERVICE TWIN CITIES/CHANHASSEN MN
600 PM CST WED NOV 26 2014


NOTE: "FAIR" INDICATES FEW OR NO CLOUDS BELOW 12,000 FEET WITH NO
SIGNIFICANT WEATHER AND/OR OBSTRUCTIONS TO VISIBILITY. N/A MEANS
CURRENT SKY AND/OR WEATHER CONDITIONS ARE NOT AVAILABLE.

MNZ060>063-068>070-270100-
   Twin Cities Metro

CITY           SKY/WX    TMP DP  RH WIND       PRES   REMARKS
TWIN CITIES    CLOUDY    23  16  74 NW10      30.29R WCI  12
6HR MIN TEMP:  22; 6HR MAX TEMP:  26; 6HR PCP: TRACE;

ST PAUL        CLOUDY    23  17  78 NW10      30.30R WCI  12
CRYSTAL        CLOUDY    24  14  65 N12       30.28R WCI  13
BLAINE         MOCLDY    25  18  74 NW15      30.28R WCI  12
LAKEVILLE      MOCLDY    19  16  86 NW5       30.28R WCI  13
EDEN PRAIRIE   CLOUDY    23  16  74 NW13      30.28R WCI  11
6HR MIN TEMP:  22; 6HR MAX TEMP:  27; 6HR PCP: TRACE;

SOUTH ST PAUL  CLOUDY    24  17  74 NW5       30.28R WCI  19
LAKE ELMO      CLOUDY    23  18  80 N5        30.27R WCI  17
$$
MNZ001>005-007-008-013>017-022>024-027-028-270100-
   Northwest Minnesota

CITY           SKY/WX    TMP DP  RH WIND       PRES   REMARKS
BEMIDJI        CLEAR     -5 -11  75 NW7       30.38S WCI -19
HALLOCK        CLEAR     -6 -13  71 CALM      30.52R
ROSEAU         CLEAR     -4  -9  77 NW7       30.46R WCI -18
WARROAD        CLEAR     -4  -9  77 NW8       30.45R WCI -19
THIEF RVR FALL CLEAR     -4  -9  77 NW13      30.46R WCI -23
CROOKSTON      CLEAR     -2  -8  78 N9        30.52R WCI -18
FOSSTON        CLEAR     -9 -15  77 CALM      30.44R
DETROIT LAKES  CLEAR      0  -6  78 NW8       30.42R WCI -15
MOORHEAD       CLEAR     -2  -6  84 N7        30.50R WCI -16
PARK RAPIDS    CLEAR      1  -8  66 NW9       30.36R WCI -14
MAHNOMEN       FAIR      -3  -8  77 NW8       30.43R WCI -18
$$
MNZ006-009>011-018-025>026-270100-
   North Central Minnesota

CITY           SKY/WX    TMP DP  RH WIND       PRES   REMARKS
BAUDETTE       CLEAR     -4 -10  75 N5        30.41R WCI -15
FLAG ISLAND    CLEAR     -6 -11  77 NW8       30.44R WCI -21
INTL FALLS     CLEAR     -3  -8  79 NW7       30.38R WCI -16
6HR MIN TEMP:  -3; 6HR MAX TEMP:   7;

WASKISH        CLEAR     -2  -8  78 CALM      30.41R
BIG FORK       CLEAR      1  -6  71 NW3       30.37R
LONGVILLE      CLEAR      3  -6  66 NW6       30.36R WCI  -8
GRAND RAPIDS   CLEAR      7  -6  56 NW14      30.31R WCI -10
CRANE LAKE     FAIR       1  -4  78 NW3       30.38R
ORR            FAIR       0  -8  71 NW5       30.32R WCI -10
COOK           CLEAR      1  -6  71 NW6       30.34R WCI -10
WALKER         FAIR       2  -7  66 NW5       30.37R WCI  -8
$$
MNZ012-019>021-037-270100-
   Northeast Minnesota

CITY           SKY/WX    TMP DP  RH WIND       PRES   REMARKS
DULUTH         PTCLDY    11   2  67 NW10      30.26R WCI  -3
6HR MIN TEMP:  11; 6HR MAX TEMP:  19; 6HR PCP: TRACE;

ELY            CLEAR      3  -4  72 NW3       30.30R
HIBBING        CLEAR      7  -6  55 N12       30.31R WCI  -8
EVELETH        CLEAR      9  -4  56 N9G16     30.32R WCI  -5
DULUTH HARBOR  MOCLDY    18   9  68 NW9       30.34R WCI   6
TWO HARBORS    PTCLDY    14   5  67 N5        30.27R WCI   6
SILVER BAY     PTCLDY    12   3  67 NW5       30.27R WCI   4
GRAND MARAIS     N/A     12   2  64 N15G24    30.28R WCI  -4
G MARAIS ARPRT PTCLDY     3  -2  78 N10       30.20R HAZE    WCI -12
$$
MNZ029>031-032-039>041-046>048-054>057-064-270100-
   West Central Minnesota

CITY           SKY/WX    TMP DP  RH WIND       PRES   REMARKS
FERGUS FALLS   CLEAR      0  -8  71 N16       30.48R WCI -21
WHEATON        PTCLDY     1  -6  71 NW9G18    30.48R WCI -14
MORRIS         CLOUDY     5   0  78 NW20G26   30.40R WCI -15
ALEXANDRIA     MOCLDY     8  -4  58 NW16      30.35R WCI -10
ELBOW LAKE     FAIR       2  -3  80 NW17      30.41R WCI -18
WADENA         CLEAR      3  -6  66 NW12G18   30.36R WCI -13
GLENWOOD       CLOUDY    10   1  67 NW18      30.34R WCI  -8
APPLETON       MOCLDY     9   1  72 NW21      30.42R WCI -11
BENSON         CLOUDY     9   3  78 N17       30.38R WCI -10
ORTONVILLE     CLOUDY     7  -2  66 NW16G22   30.43R WCI -11
MADISON        MOCLDY    12   3  67 NW15      30.42R WCI  -4
WILLMAR        LGT SNOW  14   9  79 NW20      30.35R WCI  -3
$$
MNZ033>034-036-042>043-049>051-058-059-270100-
   Central Minnesota

CITY           SKY/WX    TMP DP  RH WIND       PRES   REMARKS
ST CLOUD       CLOUDY    19   7  59 N12       30.31R WCI   7
6HR MIN TEMP:  19; 6HR MAX TEMP:  25;

SAUK CENTRE    CLOUDY    13   5  70 NW12G21   30.33R WCI  -1
PAYNESVILLE    CLOUDY    15   8  72 W12G17    30.32R WCI   2
AITKIN         PTCLDY    12  -4  48 NW7       30.31R WCI   2
PINE RIVER     CLEAR      7  -6  56 N10       30.37R WCI  -8
BRAINERD       PTCLDY     9  -7  48 N13       30.34R WCI  -7
STAPLES        PTCLDY     9  -8  47 NW8       30.35R WCI  -4
LONG PRAIRIE   CLOUDY    14   3  62 NW12      30.33R WCI   0
LITTLE FALLS   PTCLDY    16   1  53 NW8       30.33R WCI   5
LITCHFIELD     CLOUDY    19  12  73 NW9       30.31S WCI   9
BUFFALO        CLOUDY    20  12  69 NW7       30.31S WCI  11
MAPLE LAKE     CLOUDY    21  14  73 NW9       30.31R WCI  11
$$
MNZ037-044-045-052-053-270100-
   East Central Minnesota

CITY           SKY/WX    TMP DP  RH WIND       PRES   REMARKS
PRINCETON      MOCLDY    19  10  68 NW10      30.30R WCI   8
MORA           MOCLDY    19   7  58 N12G17    30.31R WCI   7
CAMBRIDGE      MOCLDY    21  10  63 NW8       30.28R WCI  12
RUSH CITY      CLOUDY    21  11  65 N7        30.29R WCI  12
MOOSE LAKE     PTCLDY    16   5  62 N5        30.29R WCI   9
HINCKLEY       CLOUDY    19  10  68 N13       30.29R WCI   7
CLOQUET        PTCLDY    12   1  62 NW10      30.28R WCI  -1
MCGREGOR       PTCLDY    12   1  62 NW10G16   30.31R WCI  -1
$$
MNZ071>073-080-081-089-090-097-098-270100-
   Southwest Minnesota

CITY           SKY/WX    TMP DP  RH WIND       PRES   REMARKS
MONTEVIDEO     CLOUDY     9   3  78 N17       30.40R WCI -10
GRANITE FALLS  CLOUDY    10   5  81 NW16      30.40R WCI  -8
CANBY          CLOUDY     9   2  76 NW14      30.41S WCI  -8
MARSHALL       CLOUDY     9   0  66 N18G25    30.37R WCI -10
REDWOOD FALLS  CLOUDY    12   7  80 NW14G22   30.35R WCI  -3
OLIVIA         MOCLDY    16  10  79 NW20      30.34R WCI  -1
PIPESTONE      CLOUDY    12   3  67 N9G18     30.33R WCI   0
WINDOM         FLURRIES  10   9  92 NW16      30.32R WCI  -7
WORTHINGTON    CLOUDY    12   9  85 N15       30.32R WCI  -4
JACKSON        CLOUDY    14  10  85 NW20      30.30R WCI  -3
TRACY          CLOUDY    11   7  83 NW16G23   30.35S WCI  -6
SLAYTON        CLOUDY     9   6  87 NW13      30.33R WCI  -7
$$
MNZ065>067-074>077-082>085-091>093-270100-
   South Central Minnesota

CITY           SKY/WX    TMP DP  RH WIND       PRES   REMARKS
MANKATO        CLOUDY    21  14  73 NW14      30.28R WCI   8
NEW ULM        CLOUDY    14  12  92 NW14G22   30.32R WCI  -1
ST JAMES       CLOUDY    16  12  86 NW16      30.33R WCI   0
FAIRMONT       CLOUDY    16   9  73 NW20      30.29R WCI  -1
GLENCOE        CLOUDY    23  17  77 NW10      30.29S WCI  12
FARIBAULT      CLOUDY    25  19  80 NW6       30.27R WCI  18
OWATONNA       MOCLDY    25  19  80 N9        30.25R WCI  15
WASECA         CLOUDY    23  18  80 NW10      30.28R WCI  12
ALBERT LEA     CLOUDY    25  23  93 N7        30.24R WCI  17
$$
MNZ078>079-086>088-094>096-270100-
   Southeast Minnesota

CITY           SKY/WX    TMP DP  RH WIND       PRES   REMARKS
ROCHESTER      CLOUDY    24  21  88 N13       30.22R FOG     WCI  12
6HR MIN TEMP:  22; 6HR MAX TEMP:  24; 6HR PCP:  0.08;

RED WING         N/A     27  18  69 N3        30.25S
STANTON        CLOUDY    25  18  74 N6        30.25S WCI  18
DODGE CENTER   CLOUDY    25  21  86 N16       30.22R WCI  12
WINONA         LGT SNOW  28  27  93 NW3       30.24S
AUSTIN         CLOUDY    25  21  86 N10       30.23R WCI  15
PRESTON        LGT SNOW  22  20  93 N6        30.21R WCI  14
$$
ABBREVIATIONS USED IN REMARKS
   TC - TEMPERATURES IN CELSIUS
  WCI - WIND CHILL INDEX
   HX - HEAT INDEX
  VSB - VISIBILITY
$$


USA.gov is the U.S. government's official web portal to all federal, state and local government web resources and services.